• In Deutschland
  • Länderverzeichnis
  • Für 7 Tage
  • Wassertemperatur
  • Satellitenkarten
  • Wetterkarte
  • Widgets
  • user-avatar
    Anmelden

    Stündliche Wetter Klagenfurt

    Heute, 25 November, Samstag

    Zeit Temperatur Niederschläge Wind Luftdruck Luftfeuchtigkeit
    00:00 +5°C° 0 mm 1 m/S 689 mmHg 94%
    01:00 +5°C° 0 mm 1 m/S 689 mmHg 94%
    02:00 +5°C° 0 mm 1 m/S 689 mmHg 94%
    03:00 +5°C° 0 mm 1 m/S 688 mmHg 94%
    04:00 +5°C° 0 mm 1 m/S 688 mmHg 94%
    05:00 +5°C° 0,1 mm 1 m/S 687 mmHg 94%
    06:00 +5°C° 0,1 mm 1 m/S 687 mmHg 95%
    07:00 +5°C° 0,1 mm 1 m/S 687 mmHg 95%
    08:00 +5°C° 0,1 mm 2 m/S 686 mmHg 93%
    09:00 +6°C° 0,1 mm 2 m/S 686 mmHg 92%
    10:00 +7°C° 0,1 mm 3 m/S 685 mmHg 90%
    11:00 +7°C° 0,2 mm 3 m/S 685 mmHg 89%
    12:00 +8°C° 0,2 mm 3 m/S 685 mmHg 89%
    13:00 +8°C° 0,2 mm 3 m/S 684 mmHg 88%
    14:00 +8°C° 0,4 mm 3 m/S 684 mmHg 90%
    15:00 +7°C° 0,4 mm 2 m/S 684 mmHg 92%
    16:00 +7°C° 0,4 mm 2 m/S 684 mmHg 93%
    17:00 +8°C° 1,6 mm 1 m/S 685 mmHg 94%
    18:00 +8°C° 1,6 mm 1 m/S 685 mmHg 95%
    19:00 +8°C° 1,6 mm 1 m/S 685 mmHg 95%
    20:00 +7°C° 4 mm 1 m/S 685 mmHg 95%
    21:00 +7°C° 4 mm 1 m/S 685 mmHg 94%
    22:00 +5°C° 4 mm 2 m/S 685 mmHg 93%
    23:00 +5°C° 4,5 mm 2 m/S 685 mmHg 93%

    Morgen, 26 November, Sonntag

    Zeit Temperatur Niederschläge Wind Luftdruck Luftfeuchtigkeit
    00:00 +4°C° 4,5 mm 2 m/S 686 mmHg 92%
    01:00 +3°C° 4,5 mm 2 m/S 686 mmHg 91%
    02:00 +3°C° 2 mm 2 m/S 686 mmHg 91%
    03:00 +2°C° 2 mm 2 m/S 686 mmHg 91%
    04:00 +2°C° 2 mm 2 m/S 686 mmHg 91%
    05:00 +2°C° 0,8 mm 2 m/S 687 mmHg 91%
    06:00 +1°C° 0,8 mm 2 m/S 687 mmHg 91%
    07:00 +1°C° 0,8 mm 2 m/S 688 mmHg 91%
    08:00 +1°C° 0,2 mm 2 m/S 688 mmHg 89%
    09:00 +2°C° 0,2 mm 2 m/S 689 mmHg 88%
    10:00 +2°C° 0,2 mm 2 m/S 689 mmHg 86%
    11:00 +2°C° 0,1 mm 2 m/S 689 mmHg 83%
    12:00 +1°C° 0,1 mm 3 m/S 689 mmHg 81%
    13:00 +2°C° 0,1 mm 3 m/S 689 mmHg 78%
    14:00 +2°C° 0 mm 2 m/S 690 mmHg 79%
    15:00 +2°C° 0 mm 2 m/S 690 mmHg 80%
    16:00 +1°C° 0 mm 2 m/S 690 mmHg 81%
    17:00 -1°C° 0 mm 2 m/S 691 mmHg 82%
    18:00 -1°C° 0 mm 2 m/S 691 mmHg 83%
    19:00 -2°C° 0 mm 2 m/S 692 mmHg 83%
    20:00 -3°C° 0 mm 2 m/S 692 mmHg 84%
    21:00 -4°C° 0 mm 2 m/S 692 mmHg 85%
    22:00 -5°C° 0 mm 2 m/S 693 mmHg 85%
    23:00 -5°C° 0 mm 2 m/S 693 mmHg 85%

    übermorgen, 27 November, Montag

    Zeit Temperatur Niederschläge Wind Luftdruck Luftfeuchtigkeit
    00:00 -6°C° 0 mm 2 m/S 693 mmHg 85%
    01:00 -6°C° 0 mm 2 m/S 693 mmHg 85%
    02:00 -7°C° 0 mm 2 m/S 693 mmHg 84%
    03:00 -7°C° 0 mm 2 m/S 693 mmHg 84%
    04:00 -6°C° 0 mm 1 m/S 693 mmHg 83%
    05:00 -6°C° 0 mm 1 m/S 693 mmHg 83%
    06:00 -6°C° 0 mm 1 m/S 694 mmHg 82%
    07:00 -6°C° 0 mm 1 m/S 694 mmHg 82%
    08:00 -3°C° 0 mm 1 m/S 694 mmHg 77%
    09:00 -2°C° 0 mm 1 m/S 695 mmHg 73%
    10:00 0°C° 0 mm 1 m/S 695 mmHg 68%
    11:00 +1°C° 0 mm 1 m/S 695 mmHg 65%
    12:00 +2°C° 0 mm 1 m/S 695 mmHg 62%
    13:00 +3°C° 0 mm 1 m/S 695 mmHg 59%
    14:00 +2°C° 0 mm 1 m/S 694 mmHg 63%
    15:00 +1°C° 0 mm 1 m/S 694 mmHg 68%
    16:00 0°C° 0 mm 1 m/S 694 mmHg 73%
    17:00 -1°C° 0 mm 1 m/S 694 mmHg 75%
    18:00 -2°C° 0 mm 1 m/S 694 mmHg 77%
    19:00 -3°C° 0 mm 1 m/S 694 mmHg 79%
    20:00 -3°C° 0 mm 1 m/S 694 mmHg 79%
    21:00 -4°C° 0 mm 1 m/S 694 mmHg 79%
    22:00 -4°C° 0 mm 1 m/S 694 mmHg 79%
    23:00 -4°C° 0 mm 1 m/S 693 mmHg 78%

    28 November, Dienstag

    Zeit Temperatur Niederschläge Wind Luftdruck Luftfeuchtigkeit
    00:00 -4°C° 0 mm 1 m/S 693 mmHg 77%
    01:00 -4°C° 0 mm 1 m/S 692 mmHg 76%
    02:00 -4°C° 0 mm 1 m/S 692 mmHg 75%
    03:00 -4°C° 0 mm 1 m/S 691 mmHg 74%
    04:00 -4°C° 0 mm 1 m/S 691 mmHg 74%
    05:00 -4°C° 0 mm 1 m/S 691 mmHg 73%
    06:00 -4°C° 0 mm 1 m/S 690 mmHg 73%
    07:00 -4°C° 0 mm 1 m/S 690 mmHg 73%
    08:00 -3°C° 0 mm 1 m/S 690 mmHg 69%
    09:00 -1°C° 0 mm 1 m/S 690 mmHg 65%
    10:00 +1°C° 0 mm 1 m/S 690 mmHg 61%
    11:00 +2°C° 0 mm 1 m/S 689 mmHg 60%
    12:00 +2°C° 0 mm 1 m/S 688 mmHg 58%
    13:00 +3°C° 0 mm 1 m/S 688 mmHg 57%
    14:00 +2°C° 0 mm 1 m/S 687 mmHg 63%
    15:00 +1°C° 0 mm 1 m/S 686 mmHg 69%
    16:00 0°C° 0 mm 1 m/S 685 mmHg 75%
    17:00 -1°C° 0 mm 1 m/S 685 mmHg 77%
    18:00 -2°C° 0 mm 1 m/S 685 mmHg 78%
    19:00 -3°C° 0 mm 1 m/S 684 mmHg 80%
    20:00 -3°C° 0 mm 1 m/S 684 mmHg 79%
    21:00 -3°C° 0 mm 1 m/S 684 mmHg 78%
    22:00 -3°C° 0 mm 1 m/S 684 mmHg 78%
    23:00 -3°C° 0 mm 1 m/S 683 mmHg 77%

    29 November, Mittwoch

    Zeit Temperatur Niederschläge Wind Luftdruck Luftfeuchtigkeit
    00:00 -3°C° 0 mm 1 m/S 683 mmHg 76%
    01:00 -3°C° 0 mm 1 m/S 683 mmHg 76%
    02:00 -3°C° 0 mm 1 m/S 683 mmHg 77%
    03:00 -3°C° 0 mm 1 m/S 682 mmHg 78%
    04:00 -3°C° 0 mm 1 m/S 682 mmHg 79%
    05:00 -2°C° 0,1 mm 1 m/S 682 mmHg 81%
    06:00 -2°C° 0,1 mm 1 m/S 682 mmHg 83%
    07:00 -1°C° 0,1 mm 1 m/S 682 mmHg 84%
    08:00 0°C° 0,1 mm 1 m/S 682 mmHg 84%
    09:00 +1°C° 0,1 mm 1 m/S 682 mmHg 83%
    10:00 +2°C° 0,1 mm 1 m/S 682 mmHg 83%
    11:00 +2°C° 0,7 mm 1 m/S 682 mmHg 84%
    12:00 +3°C° 0,7 mm 1 m/S 681 mmHg 86%
    13:00 +3°C° 0,7 mm 1 m/S 681 mmHg 88%
    14:00 +3°C° 2 mm 1 m/S 681 mmHg 90%
    15:00 +3°C° 2 mm 1 m/S 680 mmHg 93%
    16:00 +2°C° 2 mm 1 m/S 680 mmHg 95%
    17:00 +2°C° 2,3 mm 1 m/S 680 mmHg 95%
    18:00 +2°C° 2,3 mm 1 m/S 680 mmHg 95%
    19:00 +2°C° 2,3 mm 1 m/S 679 mmHg 95%
    20:00 +2°C° 2,3 mm 1 m/S 679 mmHg 95%
    21:00 +2°C° 2,3 mm 1 m/S 678 mmHg 96%
    22:00 +2°C° 2,3 mm 1 m/S 678 mmHg 96%
    23:00 +2°C° 3,7 mm 1 m/S 677 mmHg 96%

    30 November, Donnerstag

    Zeit Temperatur Niederschläge Wind Luftdruck Luftfeuchtigkeit
    00:00 +2°C° 3,7 mm 1 m/S 676 mmHg 96%
    01:00 +2°C° 3,7 mm 1 m/S 676 mmHg 96%
    02:00 +1°C° 3,5 mm 2 m/S 675 mmHg 96%
    03:00 -1°C° 3,5 mm 2 m/S 675 mmHg 95%
    04:00 -1°C° 3,5 mm 2 m/S 675 mmHg 95%
    05:00 -1°C° 1,1 mm 2 m/S 675 mmHg 95%
    06:00 -1°C° 1,1 mm 2 m/S 675 mmHg 94%
    07:00 0°C° 1,1 mm 1 m/S 675 mmHg 94%
    08:00 +1°C° 0,8 mm 1 m/S 676 mmHg 93%
    09:00 +1°C° 0,8 mm 1 m/S 676 mmHg 93%
    10:00 +1°C° 0,8 mm 1 m/S 677 mmHg 92%
    11:00 +1°C° 0,3 mm 1 m/S 677 mmHg 90%
    12:00 +1°C° 0,3 mm 1 m/S 678 mmHg 89%
    13:00 +2°C° 0,3 mm 1 m/S 678 mmHg 87%
    14:00 +1°C° 0 mm 1 m/S 678 mmHg 87%
    15:00 0°C° 0 mm 1 m/S 679 mmHg 87%
    16:00 0°C° 0 mm 1 m/S 679 mmHg 87%
    17:00 -1°C° 0 mm 1 m/S 680 mmHg 87%
    18:00 -1°C° 0 mm 1 m/S 681 mmHg 87%
    19:00 -2°C° 0 mm 1 m/S 681 mmHg 87%
    20:00 -3°C° 0 mm 1 m/S 681 mmHg 87%
    21:00 -3°C° 0 mm 1 m/S 682 mmHg 86%
    22:00 -4°C° 0 mm 1 m/S 682 mmHg 86%
    23:00 -4°C° 0 mm 1 m/S 682 mmHg 86%
    Mehr zeigen